Regional Weather Roundup
Issued by NWS Jackson, KY

Home | Current Version | Previous Version | Graphics & Text | Print | Product List | Glossary On
Versions: 1 2 3 4 5 6 7 8 9 10 11 12 13 14 15 16 17 18 19 20 21 22 23 24 25 26 27 28 29 30 31 32 33 34 35 36 37 38 39 40 41 42 43 44 45 46 47 48 49 50
000
ASUS43 KJKL 300410
RWRJKL

EAST KENTUCKY HOURLY WEATHER ROUNDUP
NATIONAL WEATHER SERVICE JACKSON KY
1200 AM EDT SAT MAY 30 2015

NOTE: "FAIR" INDICATES FEW OR NO CLOUDS BELOW 12,000 FEET WITH
NO SIGNIFICANT WEATHER AND/OR OBSTRUCTIONS TO VISIBILITY.

* THESE REPORTS ARE NOT UNDER NWS QUALITY CONTROL AND MAY NOT
  REPORT WEATHER SUCH AS PRECIPITATION AND FOG.

KYZ079-080-083-085-087-088-110-112-115-119-120-300500
...EASTERN KENTUCKY...

CITY           SKY/WX    TMP DP  RH WIND       PRES   REMARKS
JACKSON        CLEAR     68  63  84 CALM      30.16F
LONDON         MOCLDY    68  63  84 CALM      30.16S
SOMERSET*      MOCLDY    68  68 100 SE3       30.15F
MONTICELLO*    MOCLDY    71  68  90 S5        30.16F
MIDDLESBORO*   MOCLDY    68  65  92 CALM      30.18F
HARLAN APT*    CLOUDY    64  64 100 CALM      30.19F
HAZARD APT*    CLEAR     68  63  83 CALM      30.16
BLACK MTN*       N/A     63  59  88 S1          N/A
PIKEVILLE APT* CLEAR     68  64  88 S6        30.18R
BIG SANDY*     CLEAR     67  67  97 CALM      30.16S
MOREHEAD APT*  MOCLDY    68  68 100 CALM      30.15F
$$

KYZ035-036-041-042-044-050-067-078-099-300500
...CENTRAL KENTUCKY...

CITY           SKY/WX    TMP DP  RH WIND       PRES   REMARKS
MT STERLING*   MOCLDY    70  68  94 SW3       30.15S
FLEMING/MASON* CLEAR     70  66  88 S5        30.13F
DANVILLE*      MOCLDY    70  64  83 CALM      30.14F
RICHMOND*      MOCLDY    70  64  83 S5        30.13F
LEXINGTON      CLOUDY    72  64  76 S8        30.12F
FRANKFORT      MOCLDY    74  64  71 S8        30.09F
$$

KYZ091>093-OHZ055-061-077-WVZ005-015-034-035-042-300500
...SOUTHERN OHIO/WEST VIRGINIA...

CITY           SKY/WX    TMP DP  RH WIND       PRES   REMARKS
COVINGTON      MOCLDY    72  67  84 S7        30.08F
COLUMBUS       MOCLDY    73  65  75 S6        30.08F
DAYTON         PTCLDY    75  66  73 S8        30.08S
WILMINGTON     PTCLDY    71  63  75 S9        30.08F
HUNTINGTON     MOCLDY    68  67  96 SE3       30.12S
CHARLESTON     MOCLDY    67  66  97 CALM      30.14S
PINEVILLE*     MOCLDY    63  63 100 MISG      30.24S FOG
BECKLEY        CLEAR     64  59  83 SE9       30.23S
BLUEFIELD      CLEAR     67  59  75 S5        30.26F
$$

VAZ002-007-008-TNZ017-027-036-066-071-300500
...SOUTHWEST VIRGINIA/EAST TENNESSEE...

CITY           SKY/WX    TMP DP  RH WIND       PRES   REMARKS
WISE*          PTCLDY    68  59  73 S6        30.25S
JONESVILLE*    CLOUDY    66  66 100 CALM      30.21S
ABINGDON*      CLEAR     66  65  99 CALM      30.23S
BRISTOL        PTCLDY    65  63  93 CALM      30.19F
KNOXVILLE      PTCLDY    68  66  93 CALM      30.16S
OAK RIDGE      CLEAR     71  65  81 CALM      30.17F
CROSSVILLE     PTCLDY    68  63  84 CALM      30.19S
NASHVILLE      CLOUDY    73  66  78 S5        30.10F
$$

...KEY TO REMARKS...
VSB - VISIBILITY IN MILES
WCI - WIND CHILL INDEX
HX  - HEAT INDEX

$$


USA.gov is the U.S. government's official web portal to all federal, state and local government web resources and services.